Regional Weather Roundup
Issued by NWS

Home | Current Version | Previous Version | Text Only | Print | Product List | Glossary On
Versions: 1 2 3 4 5 6 7 8 9 10 11 12 13 14 15 16 17 18 19 20 21 22 23 24 25 26 27 28 29 30 31 32 33 34 35 36 37 38 39 40 41 42 43 44 45 46 47 48 49 50
000
ASUS44 KMEG 192210
RWRTN
TENNESSEE HOURLY STATE WEATHER ROUNDUP
NATIONAL WEATHER SERVICE MEMPHIS TN
400 PM CST FRI DEC 19 2014

TNZ002-004-019-021-049-052-054-088>092-192300-
WEST TENNESSEE

CITY           SKY/WX    TMP DP  RH WIND       PRES   REMARKS
MEMPHIS INTL   CLOUDY    44  34  67 NE7       30.21R
NWS MEMPHIS      N/A     43 N/A N/A MISG        N/A
JACKSON        CLOUDY    43  30  60 NE6       30.21F
DYERSBURG      CLOUDY    41  21  45 NE8       30.26R
UNION CITY     PTCLDY    37  28  70 NE7       30.23R WCI  32
PARIS          PTCLDY    37  28  70 NE7       30.22F WCI  32
HUNTINGDON     CLOUDY    39  27  62 E6        30.23S WCI  35
LEXINGTON      CLEAR     39  28  65 E5        30.21S
SAVANNAH       CLOUDY    39  28  65 N6        30.21S WCI  35
$$

TNZ008-025-027-028-033-062-065-066-192300-
NORTH MIDDLE TENNESSEE

CITY           SKY/WX    TMP DP  RH WIND       PRES   REMARKS
NASHVILLE      MOCLDY    40  28  62 NE6       30.24R
CLARKSVILLE    PTCLDY    38  29  70 NE3       30.25R
SMYRNA         CLOUDY    40  29  65 N6        30.25R
COOKEVILLE     CLEAR     37  28  70 N3        30.19S
CROSSVILLE     CLOUDY    39  24  55 N6        30.17R WCI  35
$$

TNZ061-075-076-078-094-096-097-192300-
SOUTH MIDDLE TENNESSEE

CITY           SKY/WX    TMP DP  RH WIND       PRES   REMARKS
FAYETTEVILLE   CLEAR     37  28  70 MISG      30.18S
TULLAHOMA      CLEAR     37  27  65 N7        30.19S WCI  32
WINCHESTER     CLEAR     39  28  65 N7        30.18S WCI  34
MCMINNVILLE    CLEAR     37  27  65 CALM      30.19S
SHELBYVILLE    CLEAR     39  30  70 N7        30.22R WCI  34
$$

TNZ017-018-042-046-047-192300-
NORTHEAST TENNESSEE

CITY           SKY/WX    TMP DP  RH WIND       PRES   REMARKS
TRI CITIES     CLOUDY    41  25  53 N6        30.17R
ELIZABETHTON   CLEAR     41  21  45 W5        30.15R
$$

TNZ012-013-036-069-073-074-192300-
CENTRAL EAST TENNESSEE

CITY           SKY/WX    TMP DP  RH WIND       PRES   REMARKS
KNOXVILLE      CLOUDY    45  28  51 CALM      30.17R
OAK RIDGE      CLOUDY    45  24  43 E5        30.19R
GATLINBURG     CLEAR     45  27  49 CALM      30.17R
MORRISTOWN     CLEAR     45  25  45 N3        30.17R
$$

TNZ083-085-099-192300-
SOUTHEAST TENNESSEE

CITY           SKY/WX    TMP DP  RH WIND       PRES   REMARKS
CHATTANOOGA    CLOUDY    46  28  49 N6        30.16S
$$

SKY/WX REPORTED AS FAIR MEANS FEW OR NO CLOUDS BELOW
12 THOUSAND FEET.



USA.gov is the U.S. government's official web portal to all federal, state and local government web resources and services.